Погода в Трудармейском

Россия / Кемеровская область (Кузбасс)     54°07′35″N   86°24′39″E
темп.,
°C
ветер,
м/с
пор.,
м/с
влажн.,
%
обл.,
%
осадки,
мм/ч
давл.,
гПа
погр.,
м
25 февраля, чт
чт2501:00−3зюз91678100 2.3 1010852
04:00−11з41186100 0.0 1014570
07:00−15юз3482100 0.0 101860
10:00−14юз5988100 0.1 10191004
13:00−15юз6117498 0.1 10211088
16:00−15юз6147642 0.0 10221435
19:00−18юз4128771 0.0 10251199
22:00−19ю41190100 0.0 1026432
26 февраля, пт
пт2601:00−18юз41190100 0.1 1025701
04:00−21ююз41586100 0.0 10261502
07:00−23юз41291100 0.1 10291009
10:00−22юз71486100 0.1 10321430
13:00−21юз81383100 0.1 10331263
16:00−20юз81482100 0.0 10341355
19:00−22юз51187100 0.1 1035871
22:00−23юз41189100 0.0 1037497
27 февраля, сб
сб2701:00−24ююз3592100 0.0 1038144
04:00−24ююз3693100 0.0 1038194
07:00−24ю3792100 0.1 1038225
10:00−23юз4887100 0.0 1039609
13:00−20юз4788100 0.1 1039737
16:00−19юз4784100 0.1 1038772
19:00−21юз3490100 0.1 103877
22:00−22ююз2292100 0.0 103927
28 февраля, вс
вс2801:00−24ююз2292100 0.0 104021
04:00−26ю229286 0.0 104019
07:00−27ю239271 0.0 104119
10:00−24юв349765 0.0 1041124
13:00−17юв469377 0.0 1039349
16:00−12ю358199 0.1 1037762
19:00−15ююв348793 0.1 103534
22:00−15юв4892100 0.0 1033144
1 марта, пн
пн101:00−13юв51086100 0.0 1030247
04:00−12юв61187100 0.0 1027299
07:00−10ююв61293100 0.8 1024415
10:00−6ю61193100 0.8 1021836
13:00−5ююз71385100 1.3 10181144
16:00−3юз81487100 0.3 10161015
19:00−4юз81685100 0.4 1015782
22:00−5юз8178397 0.0 1016632